GEFSNE_850_meantemp_024.txt.gz
Temperature
7 6 6 5 4 3 2 1 -0 -2 -2 -1 -0 -1 -2 -2 -3 -4 -4 -4 -4 -5 -5 -6 -6 -6 -6 -5 -5 -5 -5 -4 -4 -4 -4 -3 -3 -3
6 6 5 4 3 2 1 0 -1 -2 -3 -3 -3 -3 -3 -3 -4 -5 -5 -5 -5 -5 -6 -6 -6 -6 -6 -6 -6 -5 -5 -5 -5 -5 -4 -4 -3 -3
5 4 4 3 2 1 0 -0 -1 -2 -3 -3 -4 -4 -4 -4 -4 -5 -5 -6 -6 -6 -6 -7 -7 -7 -7 -6 -6 -6 -6 -6 -5 -5 -5 -4 -4 -4
4 3 3 2 1 0 -0 -1 -2 -3 -4 -5 -5 -5 -6 -6 -6 -6 -6 -7 -7 -6 -6 -7 -7 -7 -7 -6 -6 -6 -6 -6 -6 -6 -6 -5 -5 -5
3 2 1 1 0 -0 -1 -2 -3 -4 -5 -6 -6 -7 -7 -7 -7 -7 -7 -7 -7 -7 -7 -6 -6 -6 -6 -6 -6 -6 -6 -6 -6 -6 -6 -6 -6 -5
2 1 1 0 -0 -1 -2 -3 -4 -5 -6 -7 -7 -7 -8 -7 -8 -8 -8 -7 -7 -6 -6 -6 -6 -6 -6 -6 -6 -6 -6 -6 -6 -6 -6 -6 -6 -6
1 0 0 -0 -1 -3 -4 -5 -6 -6 -7 -8 -8 -8 -8 -8 -8 -9 -9 -8 -7 -6 -6 -6 -6 -6 -5 -5 -6 -6 -5 -6 -7 -7 -7 -7 -6 -6
0 0 -0 -1 -2 -4 -5 -6 -7 -7 -8 -8 -8 -9 -9 -8 -9 -9 -9 -9 -9 -8 -8 -8 -7 -6 -6 -6 -6 -6 -6 -6 -7 -7 -7 -7 -7 -6
-0 -1 -1 -2 -4 -5 -6 -6 -7 -8 -8 -9 -9 -9 -9 -9 -9 -9 -9 -9 -9 -8 -8 -8 -7 -6 -6 -6 -6 -6 -6 -6 -6 -6 -7 -7 -7 -6
-1 -2 -3 -4 -4 -6 -7 -8 -8 -8 -8 -9 -9 -9 -9 -9 -9 -9 -9 -9 -9 -8 -8 -8 -7 -7 -7 -7 -6 -6 -6 -6 -6 -7 -7 -7 -7 -7
-2 -4 -4 -5 -5 -7 -8 -9 -9 -8 -8 -9 -9 -9 -8 -8 -9 -9 -9 -9 -10 -8 -8 -9 -7 -8 -7 -7 -6 -6 -6 -6 -6 -6 -6 -7 -7 -7
-3 -4 -5 -6 -8 -9 -9 -9 -9 -9 -9 -8 -8 -7 -7 -7 -7 -8 -8 -9 -10 -10 -8 -9 -9 -10 -10 -8 -7 -6 -6 -6 -6 -6 -6 -6 -6 -7
-5 -6 -6 -7 -9 -9 -9 -9 -9 -9 -9 -8 -8 -7 -7 -7 -7 -7 -8 -8 -9 -9 -8 -9 -9 -10 -11 -10 -8 -7 -7 -6 -6 -6 -6 -6 -6 -7
-7 -8 -8 -9 -9 -9 -9 -9 -9 -9 -9 -8 -8 -7 -7 -7 -7 -7 -7 -8 -8 -8 -7 -8 -9 -9 -10 -11 -10 -8 -7 -7 -6 -6 -6 -6 -6 -6
-9 -9 -10 -10 -9 -9 -8 -9 -9 -9 -8 -8 -8 -8 -7 -7 -7 -7 -7 -7 -7 -7 -7 -7 -8 -9 -10 -10 -10 -9 -8 -7 -6 -6 -6 -7 -6 -6
-9 -9 -10 -9 -9 -9 -9 -9 -9 -9 -9 -9 -8 -8 -8 -8 -7 -8 -8 -7 -7 -6 -6 -7 -8 -8 -9 -9 -10 -9 -7 -8 -7 -6 -7 -7 -6 -6
-10 -10 -9 -9 -9 -8 -8 -8 -8 -8 -9 -8 -8 -8 -8 -8 -8 -8 -8 -8 -8 -8 -7 -6 -7 -7 -8 -9 -9 -8 -7 -7 -7 -7 -8 -8 -7 -7
-10 -9 -9 -9 -9 -9 -9 -8 -8 -8 -8 -8 -8 -8 -8 -8 -8 -8 -8 -8 -8 -8 -7 -7 -7 -8 -8 -8 -8 -8 -8 -8 -7 -7 -8 -9 -8 -7
-10 -9 -9 -9 -9 -9 -9 -9 -8 -8 -8 -8 -8 -8 -8 -8 -8 -8 -8 -8 -8 -8 -8 -8 -8 -9 -10 -9 -8 -8 -8 -8 -8 -8 -8 -8 -8 -7
-10 -10 -9 -9 -9 -9 -9 -9 -8 -8 -8 -8 -8 -8 -8 -8 -8 -8 -8 -8 -8 -8 -8 -8 -8 -9 -9 -9 -9 -7 -6 -8 -8 -8 -8 -8 -7 -7
-10 -9 -9 -9 -9 -9 -9 -8 -8 -8 -8 -8 -8 -8 -8 -8 -8 -8 -8 -8 -8 -9 -9 -8 -8 -8 -8 -8 -8 -8 -6 -6 -7 -8 -8 -8 -7 -7
-10 -9 -9 -9 -9 -9 -8 -8 -8 -8 -8 -8 -8 -7 -7 -8 -8 -8 -8 -8 -8 -8 -8 -8 -8 -8 -8 -8 -8 -8 -7 -6 -6 -6 -6 -6 -7 -7
-10 -9 -9 -9 -9 -9 -8 -8 -8 -8 -8 -8 -7 -7 -7 -7 -7 -7 -8 -8 -8 -8 -8 -8 -8 -8 -8 -8 -8 -8 -8 -7 -7 -6 -5 -5 -5 -5

GEFSNE_850_meantemp_030.txt.gz
Temperature
8 8 8 7 7 6 6 5 4 3 3 4 3 2 1 1 -0 -0 -1 -1 -1 -1 -1 -2 -2 -3 -3 -4 -4 -5 -5 -5 -4 -4 -4 -4 -3 -3
7 6 6 6 5 5 4 4 3 2 1 1 1 0 0 -0 -1 -1 -2 -2 -3 -2 -2 -3 -3 -4 -4 -5 -5 -5 -5 -5 -5 -5 -5 -4 -4 -4
6 5 5 4 4 3 3 2 1 1 -0 -0 -1 -1 -1 -1 -1 -2 -3 -3 -3 -3 -3 -4 -4 -4 -5 -5 -5 -5 -6 -6 -5 -5 -5 -5 -4 -4
4 4 3 3 2 2 1 1 0 -0 -1 -2 -2 -2 -2 -3 -3 -4 -4 -4 -4 -4 -4 -4 -4 -4 -5 -5 -5 -6 -6 -6 -6 -6 -6 -5 -5 -5
3 3 2 2 1 0 0 -0 -1 -1 -2 -3 -3 -4 -4 -4 -5 -5 -5 -5 -5 -4 -4 -4 -4 -5 -5 -5 -6 -6 -6 -6 -6 -6 -6 -6 -6 -6
2 2 1 1 -0 -1 -1 -1 -2 -2 -3 -4 -5 -5 -5 -5 -6 -6 -6 -6 -5 -5 -4 -5 -5 -5 -5 -5 -5 -5 -5 -5 -5 -6 -6 -6 -6 -6
2 1 1 0 -1 -1 -1 -2 -3 -4 -4 -5 -6 -6 -6 -7 -7 -7 -7 -7 -6 -5 -5 -5 -5 -5 -4 -5 -5 -5 -5 -5 -5 -6 -6 -6 -6 -6
1 0 -0 -1 -1 -2 -2 -3 -4 -5 -6 -7 -7 -8 -8 -8 -8 -8 -8 -8 -8 -6 -7 -6 -6 -5 -5 -5 -5 -5 -5 -5 -6 -6 -6 -7 -7 -7
-0 -1 -2 -2 -2 -2 -3 -4 -5 -5 -7 -8 -8 -8 -8 -8 -8 -8 -9 -9 -9 -8 -8 -7 -6 -5 -5 -5 -5 -5 -5 -5 -6 -6 -6 -7 -7 -7
-1 -1 -2 -2 -3 -4 -5 -5 -6 -6 -7 -8 -8 -8 -8 -8 -9 -9 -9 -9 -8 -7 -7 -7 -6 -6 -6 -5 -5 -5 -5 -5 -6 -6 -6 -7 -7 -7
-2 -3 -3 -4 -4 -5 -7 -8 -8 -7 -8 -8 -8 -8 -8 -8 -8 -8 -8 -8 -8 -7 -7 -8 -6 -7 -6 -5 -5 -5 -6 -6 -6 -6 -6 -6 -7 -7
-4 -4 -5 -5 -6 -7 -8 -9 -8 -8 -8 -7 -7 -7 -7 -7 -7 -8 -8 -8 -9 -9 -7 -8 -8 -8 -9 -6 -6 -6 -6 -6 -6 -6 -6 -6 -7 -8
-5 -5 -6 -6 -8 -9 -9 -9 -9 -9 -9 -8 -7 -7 -7 -7 -7 -7 -8 -8 -8 -8 -7 -9 -9 -9 -10 -9 -7 -6 -6 -6 -6 -6 -6 -6 -6 -7
-6 -7 -7 -8 -9 -9 -9 -9 -9 -9 -8 -8 -8 -7 -7 -7 -7 -7 -7 -8 -8 -8 -7 -8 -9 -9 -10 -10 -9 -7 -6 -6 -6 -6 -6 -6 -7 -7
-8 -8 -9 -9 -9 -8 -8 -8 -8 -8 -8 -8 -8 -7 -7 -7 -7 -7 -7 -7 -7 -6 -7 -7 -8 -9 -9 -10 -9 -8 -7 -6 -6 -6 -6 -7 -7 -7
-8 -8 -8 -8 -8 -8 -8 -8 -8 -9 -9 -8 -8 -8 -8 -7 -7 -7 -7 -7 -6 -5 -5 -6 -7 -8 -8 -8 -9 -8 -7 -7 -6 -7 -7 -7 -7 -7
-9 -8 -8 -8 -8 -8 -8 -8 -8 -8 -8 -8 -8 -8 -8 -8 -7 -7 -7 -7 -7 -6 -5 -5 -6 -7 -7 -8 -8 -7 -7 -7 -7 -8 -8 -8 -7 -7
-9 -8 -9 -9 -9 -9 -8 -8 -8 -8 -8 -8 -8 -8 -8 -8 -7 -7 -7 -7 -7 -7 -6 -6 -7 -7 -7 -7 -7 -8 -8 -8 -8 -8 -9 -9 -9 -7
-9 -9 -9 -9 -9 -9 -9 -9 -8 -8 -8 -8 -8 -8 -8 -8 -7 -7 -7 -7 -7 -7 -7 -7 -8 -9 -10 -10 -8 -8 -9 -9 -9 -9 -9 -9 -9 -7
-9 -9 -9 -9 -9 -9 -9 -9 -8 -8 -8 -8 -8 -8 -8 -8 -7 -7 -7 -7 -7 -8 -8 -7 -8 -9 -9 -9 -9 -8 -7 -8 -9 -9 -8 -8 -8 -7
-9 -10 -10 -10 -9 -9 -9 -9 -9 -8 -8 -8 -8 -8 -8 -8 -7 -7 -7 -7 -8 -8 -8 -8 -7 -8 -9 -9 -9 -8 -7 -6 -7 -8 -8 -8 -8 -7
-10 -10 -10 -10 -9 -9 -9 -9 -8 -8 -8 -8 -8 -8 -8 -8 -7 -7 -7 -7 -8 -8 -8 -8 -8 -8 -9 -9 -8 -8 -7 -6 -5 -6 -6 -7 -7 -7
-10 -9 -9 -9 -9 -9 -9 -9 -8 -8 -8 -8 -8 -8 -8 -8 -7 -7 -7 -7 -8 -8 -8 -8 -8 -8 -8 -8 -8 -8 -8 -7 -7 -6 -4 -5 -6 -6

GEFSNE_850_meantemp_036.txt.gz
Temperature
10 10 10 10 9 9 9 9 8 7 6 5 5 5 4 3 2 2 1 2 2 2 1 1 1 1 1 0 -0 -1 -1 -2 -2 -2 -3 -3 -3 -3
10 10 9 9 8 7 7 7 7 6 5 4 4 3 3 2 1 1 0 0 1 1 0 0 -0 -1 -1 -1 -2 -2 -2 -2 -3 -3 -3 -3 -3 -3
9 9 8 7 6 6 6 6 5 5 4 3 3 2 1 1 0 -0 -1 -1 -1 -0 -1 -1 -1 -2 -2 -2 -2 -3 -3 -3 -3 -3 -4 -4 -4 -3
9 8 7 6 5 5 4 4 4 4 3 3 2 1 0 -0 -1 -1 -1 -1 -1 -1 -1 -2 -2 -2 -3 -3 -3 -3 -4 -4 -4 -4 -4 -4 -4 -4
7 6 5 4 4 3 3 3 3 2 2 1 0 -1 -1 -1 -1 -2 -2 -2 -2 -2 -2 -2 -3 -3 -3 -3 -4 -4 -4 -4 -4 -4 -4 -4 -4 -4
4 3 3 2 2 2 2 2 2 1 0 -1 -1 -2 -2 -2 -3 -3 -4 -4 -4 -3 -3 -3 -3 -3 -3 -3 -4 -4 -4 -4 -4 -4 -4 -4 -4 -4
2 1 1 2 2 2 1 1 -0 -1 -1 -2 -3 -4 -4 -4 -5 -6 -6 -6 -5 -4 -4 -4 -4 -4 -3 -3 -3 -3 -4 -4 -4 -4 -4 -4 -5 -5
1 1 1 1 1 0 -0 -1 -1 -2 -2 -4 -5 -5 -6 -6 -7 -7 -8 -8 -7 -6 -6 -6 -5 -5 -4 -4 -3 -3 -4 -4 -4 -4 -5 -5 -5 -5
1 1 0 -0 -1 -1 -2 -2 -2 -3 -4 -5 -6 -7 -7 -7 -8 -8 -8 -8 -8 -7 -8 -7 -6 -5 -5 -4 -3 -3 -4 -4 -4 -5 -5 -5 -5 -6
-0 -1 -1 -2 -2 -2 -2 -3 -3 -4 -5 -6 -7 -7 -7 -7 -8 -8 -8 -8 -8 -7 -8 -8 -7 -6 -6 -4 -3 -3 -4 -4 -4 -5 -5 -5 -5 -6
-2 -2 -2 -2 -3 -3 -4 -4 -5 -6 -7 -7 -7 -7 -7 -7 -8 -8 -8 -8 -8 -7 -7 -8 -7 -7 -6 -4 -4 -4 -4 -4 -4 -4 -5 -5 -5 -6
-2 -3 -3 -3 -4 -5 -6 -7 -7 -7 -8 -7 -7 -7 -7 -7 -7 -8 -8 -8 -8 -8 -7 -8 -7 -8 -8 -5 -4 -4 -4 -4 -4 -4 -5 -5 -5 -6
-4 -4 -4 -5 -6 -7 -8 -8 -8 -8 -8 -7 -7 -7 -7 -7 -7 -7 -8 -8 -8 -8 -7 -8 -8 -8 -9 -8 -5 -4 -5 -5 -5 -5 -5 -5 -6 -6
-5 -6 -6 -7 -7 -8 -8 -8 -8 -8 -8 -8 -7 -7 -7 -7 -7 -7 -7 -7 -7 -7 -7 -7 -7 -7 -8 -9 -8 -6 -5 -5 -6 -5 -5 -6 -6 -6
-7 -7 -7 -7 -8 -8 -8 -8 -8 -8 -8 -8 -8 -7 -7 -7 -7 -7 -7 -7 -6 -6 -6 -6 -7 -7 -8 -9 -8 -7 -6 -5 -5 -6 -6 -7 -7 -7
-7 -8 -8 -8 -8 -8 -8 -8 -8 -8 -8 -8 -8 -8 -7 -7 -7 -7 -7 -7 -6 -5 -5 -6 -6 -7 -8 -8 -9 -8 -7 -7 -6 -7 -7 -8 -7 -8
-8 -8 -8 -9 -9 -9 -9 -9 -8 -8 -8 -8 -8 -8 -8 -7 -7 -7 -7 -7 -7 -6 -6 -6 -7 -8 -8 -8 -8 -7 -7 -7 -8 -8 -9 -9 -8 -8
-9 -9 -9 -9 -9 -9 -9 -9 -9 -9 -8 -8 -8 -8 -8 -8 -8 -7 -7 -7 -7 -6 -6 -6 -7 -8 -8 -8 -8 -7 -8 -8 -8 -9 -9 -9 -8 -8
-9 -9 -9 -9 -9 -9 -9 -8 -8 -8 -8 -8 -8 -8 -8 -8 -8 -8 -7 -7 -7 -7 -7 -7 -8 -9 -9 -9 -8 -8 -8 -8 -9 -9 -8 -8 -8 -8
-9 -9 -9 -9 -9 -9 -9 -9 -8 -8 -8 -8 -8 -8 -8 -8 -8 -8 -8 -8 -8 -7 -7 -7 -8 -8 -9 -9 -9 -8 -7 -8 -8 -8 -8 -8 -8 -7
-9 -9 -9 -9 -9 -9 -9 -8 -8 -8 -8 -8 -8 -8 -8 -8 -8 -8 -8 -8 -8 -8 -8 -7 -7 -8 -8 -9 -9 -8 -8 -8 -8 -8 -8 -8 -8 -7
-9 -9 -9 -9 -9 -9 -8 -8 -8 -8 -8 -8 -8 -8 -8 -8 -8 -8 -8 -8 -8 -8 -8 -7 -7 -8 -8 -8 -8 -8 -8 -7 -7 -7 -7 -7 -7 -7
-9 -9 -9 -9 -9 -9 -8 -8 -8 -8 -8 -8 -8 -8 -9 -9 -9 -9 -8 -8 -8 -8 -8 -8 -8 -8 -8 -8 -8 -8 -8 -8 -7 -7 -7 -6 -6 -6

GEFSNE_850_meantemp_042.txt.gz
Temperature
10 10 9 9 9 8 8 8 7 6 6 5 5 5 5 4 4 4 4 4 4 4 4 4 4 4 3 3 3 2 2 1 1 1 0 -0 -0 -1
9 9 9 9 8 8 8 7 6 6 5 5 5 5 4 4 4 4 3 3 3 3 3 3 3 2 2 2 2 1 1 1 0 -0 -1 -1 -2 -2
8 8 8 8 8 8 7 7 6 5 4 4 4 3 3 3 3 3 2 3 3 2 2 2 1 1 1 1 0 0 -0 -0 -1 -1 -2 -2 -2 -2
8 8 7 7 7 7 6 6 5 4 3 3 3 3 2 2 2 2 1 1 1 1 1 0 0 -0 -0 -0 -1 -1 -1 -1 -2 -2 -2 -2 -2 -2
7 7 7 6 6 5 5 4 3 2 2 2 3 2 2 1 1 1 0 0 -0 -0 -0 -1 -1 -1 -2 -2 -2 -2 -2 -2 -3 -3 -3 -3 -2 -2
6 5 5 4 4 3 2 2 2 2 2 2 2 1 1 0 -0 -0 -1 -1 -1 -1 -2 -2 -2 -3 -3 -3 -3 -3 -3 -3 -3 -3 -3 -3 -3 -3
4 3 3 2 2 1 1 1 1 1 1 1 1 0 -0 -1 -1 -2 -2 -3 -3 -3 -3 -3 -3 -3 -3 -3 -3 -3 -3 -3 -4 -4 -4 -4 -4 -3
2 1 1 0 0 0 0 0 0 0 -0 -1 -1 -1 -2 -3 -3 -4 -5 -5 -4 -4 -5 -4 -4 -4 -3 -3 -3 -3 -3 -4 -4 -4 -4 -4 -4 -4
0 0 -0 -0 -0 -0 -1 -1 -1 -1 -2 -2 -3 -3 -4 -5 -5 -6 -6 -6 -5 -5 -6 -4 -4 -4 -3 -3 -3 -3 -3 -4 -4 -4 -4 -4 -4 -4
-0 -0 -1 -1 -1 -1 -1 -2 -2 -3 -3 -4 -4 -4 -5 -6 -6 -6 -6 -6 -6 -5 -7 -6 -4 -4 -3 -3 -3 -3 -3 -3 -4 -4 -4 -4 -4 -4
-1 -2 -2 -2 -2 -3 -3 -3 -4 -4 -5 -5 -6 -6 -6 -6 -7 -7 -7 -7 -6 -5 -6 -6 -5 -5 -3 -2 -2 -3 -3 -3 -4 -4 -4 -4 -4 -5
-2 -3 -3 -3 -4 -4 -4 -5 -5 -6 -6 -7 -7 -7 -7 -7 -7 -7 -7 -7 -7 -7 -6 -7 -6 -6 -6 -3 -2 -3 -3 -3 -3 -4 -4 -4 -5 -6
-4 -4 -4 -5 -5 -5 -6 -6 -7 -7 -7 -7 -7 -7 -7 -7 -7 -7 -7 -7 -8 -7 -7 -7 -7 -7 -7 -6 -3 -2 -3 -3 -3 -3 -4 -4 -5 -6
-5 -5 -6 -6 -6 -6 -6 -7 -7 -7 -7 -7 -7 -7 -7 -7 -7 -7 -7 -7 -7 -7 -7 -7 -7 -7 -7 -8 -6 -3 -3 -3 -4 -4 -4 -5 -5 -6
-6 -6 -7 -7 -7 -7 -7 -7 -7 -7 -7 -7 -7 -7 -7 -7 -7 -7 -7 -7 -7 -6 -6 -7 -7 -7 -7 -8 -7 -5 -4 -4 -4 -4 -5 -6 -6 -6
-6 -7 -7 -7 -7 -7 -7 -7 -7 -7 -7 -7 -7 -7 -7 -7 -7 -7 -7 -7 -7 -6 -6 -6 -7 -7 -8 -7 -8 -7 -5 -5 -5 -5 -6 -6 -6 -6
-7 -7 -7 -8 -8 -8 -8 -8 -8 -8 -8 -8 -8 -8 -7 -7 -7 -7 -8 -8 -8 -7 -6 -6 -7 -7 -8 -8 -8 -6 -6 -6 -6 -6 -7 -7 -6 -6
-8 -7 -8 -8 -8 -8 -8 -8 -8 -8 -8 -8 -8 -8 -8 -8 -8 -7 -8 -8 -8 -7 -7 -7 -7 -8 -8 -8 -7 -7 -6 -6 -7 -7 -8 -8 -8 -6
-8 -8 -8 -8 -8 -8 -8 -8 -8 -8 -8 -8 -8 -8 -8 -8 -8 -8 -8 -8 -8 -8 -8 -7 -8 -9 -10 -10 -8 -7 -8 -8 -8 -8 -8 -8 -8 -7
-8 -9 -9 -9 -9 -9 -9 -8 -8 -8 -8 -8 -8 -8 -8 -9 -9 -8 -8 -9 -9 -8 -8 -8 -8 -9 -10 -10 -10 -8 -7 -8 -8 -8 -8 -8 -8 -7
-9 -9 -9 -9 -9 -9 -9 -9 -8 -8 -8 -8 -8 -8 -9 -9 -9 -9 -9 -9 -9 -9 -9 -8 -8 -9 -9 -10 -10 -8 -7 -7 -8 -8 -8 -8 -8 -8
-9 -9 -9 -9 -9 -9 -9 -8 -8 -8 -8 -8 -8 -8 -9 -9 -9 -9 -9 -9 -9 -9 -9 -8 -8 -8 -9 -10 -10 -9 -8 -7 -7 -8 -8 -8 -8 -8
-9 -9 -9 -8 -9 -9 -9 -8 -8 -8 -8 -8 -8 -8 -9 -9 -9 -9 -9 -9 -9 -9 -9 -9 -9 -9 -9 -9 -10 -9 -9 -8 -8 -8 -7 -7 -8 -7

GEFSNE_850_meantemp_048.txt.gz
Temperature
10 9 9 9 9 8 8 8 7 7 7 7 7 7 6 6 5 5 4 3 3 3 3 2 2 2 2 2 2 2 2 2 2 2 2 1 1 1
9 9 9 8 8 8 7 7 7 6 6 6 6 6 6 5 4 4 3 3 2 2 2 1 1 1 1 1 1 1 1 1 1 1 0 -0 -0 -1
8 8 8 7 7 7 7 6 6 6 5 5 5 5 4 4 3 3 2 2 2 1 1 1 1 0 0 0 -0 -0 -0 -0 -0 -1 -1 -1 -1 -2
7 7 7 7 6 6 6 5 5 5 5 4 4 4 3 3 2 2 2 1 1 1 1 0 -0 -0 -1 -1 -1 -1 -1 -1 -2 -2 -2 -2 -2 -2
6 6 6 5 5 5 5 5 4 4 3 3 3 3 2 2 1 1 1 1 1 0 -0 -1 -1 -1 -2 -2 -2 -2 -3 -3 -3 -2 -2 -2 -2 -2
5 5 4 4 4 4 3 3 3 3 2 2 2 2 1 1 1 1 0 0 -0 -1 -1 -1 -2 -2 -3 -3 -3 -3 -3 -3 -3 -3 -3 -3 -2 -2
3 3 3 2 2 2 2 2 1 1 1 1 1 1 1 0 0 -0 -1 -1 -2 -2 -2 -3 -3 -3 -3 -3 -3 -3 -3 -3 -3 -3 -3 -3 -3 -3
2 1 1 1 1 0 0 0 0 0 0 0 -0 -0 -1 -1 -1 -2 -2 -3 -3 -4 -4 -3 -4 -4 -3 -4 -4 -4 -3 -3 -3 -3 -3 -4 -4 -4
0 0 -0 -0 -0 -0 -0 -0 -0 -1 -1 -1 -1 -2 -2 -3 -3 -4 -4 -4 -5 -5 -5 -4 -4 -4 -4 -4 -4 -4 -4 -4 -4 -4 -4 -4 -4 -4
-0 -0 -1 -1 -1 -1 -1 -1 -2 -2 -2 -2 -3 -3 -4 -4 -5 -5 -5 -6 -6 -6 -6 -5 -4 -4 -4 -4 -4 -4 -4 -4 -4 -4 -4 -4 -3 -3
-1 -1 -2 -2 -2 -2 -2 -3 -3 -3 -4 -4 -5 -5 -5 -6 -6 -6 -6 -7 -6 -6 -6 -6 -5 -4 -3 -3 -3 -3 -4 -4 -4 -4 -4 -4 -3 -3
-2 -3 -3 -3 -4 -4 -4 -4 -4 -5 -5 -5 -6 -6 -6 -6 -7 -7 -7 -7 -7 -7 -6 -7 -6 -6 -5 -3 -4 -4 -4 -4 -4 -4 -4 -4 -4 -3
-4 -4 -4 -5 -5 -6 -6 -6 -6 -6 -6 -6 -6 -6 -7 -7 -7 -7 -7 -7 -7 -7 -8 -8 -7 -7 -7 -6 -3 -3 -3 -3 -3 -4 -4 -4 -4 -4
-5 -5 -6 -6 -6 -7 -7 -7 -7 -7 -7 -7 -7 -7 -7 -7 -7 -7 -8 -8 -7 -7 -7 -8 -8 -7 -8 -7 -5 -3 -3 -3 -3 -3 -3 -4 -4 -5
-6 -6 -7 -7 -7 -7 -7 -7 -8 -7 -7 -7 -7 -7 -7 -7 -7 -7 -7 -7 -7 -7 -7 -7 -8 -8 -8 -8 -7 -5 -4 -3 -3 -3 -4 -4 -5 -5
-6 -7 -7 -7 -7 -7 -8 -8 -8 -8 -8 -8 -8 -8 -8 -8 -8 -7 -7 -7 -7 -6 -7 -7 -7 -8 -8 -8 -8 -7 -5 -5 -4 -4 -5 -5 -5 -5
-7 -7 -7 -7 -7 -7 -8 -8 -8 -8 -8 -8 -8 -8 -8 -8 -7 -7 -7 -7 -7 -6 -6 -6 -7 -8 -8 -8 -8 -7 -6 -5 -5 -5 -6 -6 -5 -5
-7 -7 -7 -7 -7 -7 -8 -8 -8 -8 -8 -8 -8 -8 -8 -8 -7 -7 -8 -7 -7 -7 -7 -7 -7 -8 -8 -7 -7 -7 -6 -6 -6 -6 -7 -7 -6 -5
-7 -7 -7 -7 -8 -8 -8 -8 -8 -8 -8 -8 -8 -8 -8 -8 -8 -8 -8 -8 -8 -8 -7 -8 -8 -9 -10 -9 -8 -8 -8 -7 -7 -7 -7 -7 -7 -6
-7 -7 -7 -7 -7 -8 -8 -8 -8 -8 -8 -8 -8 -8 -8 -8 -8 -8 -8 -8 -8 -8 -8 -8 -8 -9 -10 -10 -10 -8 -8 -8 -8 -8 -7 -8 -8 -7
-6 -7 -7 -7 -7 -7 -8 -8 -8 -8 -8 -8 -8 -8 -8 -9 -9 -9 -9 -9 -9 -9 -9 -8 -8 -9 -10 -10 -10 -8 -7 -7 -8 -8 -8 -9 -9 -9
-6 -6 -6 -7 -7 -7 -7 -7 -7 -7 -8 -8 -8 -8 -8 -9 -9 -9 -9 -9 -9 -9 -9 -8 -8 -9 -9 -10 -10 -9 -7 -7 -7 -8 -8 -9 -10 -9
-6 -6 -6 -7 -7 -7 -7 -7 -7 -7 -8 -8 -8 -8 -8 -9 -9 -9 -9 -9 -9 -9 -9 -9 -9 -9 -9 -10 -10 -9 -9 -8 -8 -8 -7 -7 -8 -8